ARIANE 5 R/B, 41383

Orbit data source: Space-Track

ARIANE 5 R/B, 41383 is space debris in HEO originally from a launch on Wed, 09 Mar 2016 UTC launched from the French Guiana (FRGUI). Debris objects in space refer to the collection of defunct objects orbiting the Earth. Examples of debris include non-operational satellites, rocket bodies, and fragments generated from explosions, collisions, or faulty payload assembly.

Loading next visibility...
ARIANE 5 R/B details
Identifier
41383, 2016-014B
Orbit
HEO
Last TLE update11 hours ago
Origin
Flag of FRArianespace (FR)
ManufacturerAirbus Safran
MissionSpacecraft
Bus & MotorESC-A, Unknown motor
Mass~5,000 kg wet, ~5,000 kg dry
Launch date (UTC)
2016-03-09 (9 years ago)
Launch vehicleUnknown
Launch site
French Guiana (FRGUI)
Object type
Payload
Rocket body
Debris
Shape & HBRCyl + 1 Nozzle, 7 m
Radar Cross Section41.627 m², Large (>1 m²)

Expand to show TLE details & history

TLE from 11 hours ago
0 ARIANE 5 R/B
1 41383U 16014B   24361.35799958  .00045869  76534-6  14658-2 0  9991
2 41383   0.5994 313.4902 6652123 119.6366 346.1328  3.16303966 85183
Epoch: 2024-12-26T08:35Z
Definitive object data (Epoch: 2024-12-26T08:35:31.163Z)
Latitude0.43326°
Longitude135.77915°
Altitude2,768.392 km
Speed8.174 km/s
True Right ascension23h 59m 59s
True Declination0° 25' 52"
Sunlit
Object was in daylight at TLE epoch
Visualization TLE readout
Latitude-0.55882°
Longitude21.33038°
Altitude25,663.576 km
Speed2.132 km/s
Apparent Right ascension15h 56m 48s
Apparent Declination-8° 45' 19"
Sunlit
Object is in daylight
Visualization observer readout
Local Sidereal Time19:01:58
Azimuth232.158° WSW
Elevation25.224°
Doppler factor1
Orbital elements
Apogee altitude26,274.745 km
Perigee altitude186.662 km
Semi-major axis19,608.84 km
Eccentricity0.6652123
Inclination0.5994°
RAAN313.4902°
Arg. of periapsis119.6366°
True anomaly287.2054°
Mean anomaly346.1328°
Eccentric anomaly323.41797°
Mean motion0.79043 °/min
BSTAR0.0014658
Orbital period455.45 mins
Loading maneuver chart data...
Loading historical data...
Loading historical data...
Loading historical data...
Loading historical data...
Loading historical data...
Loading historical data...
Loading historical data...
Other satellites on launch #14 in the year 2016 (2016-03-09 UTC)

ARIANE 5 R/B Visibility forecast

Observer location: undefined°, undefined

Span
Click to sort rows by Start time (UTC) header in descending order
Start Az.
Max El. time (UTC)
Max El. Az.
Max El.
End time (UTC)
End Az.
243 mins2024-12-26 19:39:16.258Z232.14° WSW2024-12-26 19:39:16.258Z232.14° WSW23.071°2024-12-26 23:42:16.258Z172.378° S
220 mins2024-12-27 15:59:16.258Z232.642° WSW2024-12-27 18:23:16.258Z211.36° SW30.255°2024-12-27 19:39:16.258Z214.763° SW
|